Overview Statistics Trail Chart Weather Telemetry Raw packets
 

This is the latest recevied weather packets stored in our database for station/object SQ3MKP-13. If no packets are shown the sender has not sent any weather packets the latest 10 day(s).

<< 14 15 16 17 18 19 20 >>
Time Temp. Humidity Pressure Rain* Wind** Luminosity Snow
1788503159 17.78° C 79% 1002.8 hPa - - 161 W/m² -
1788502858 17.78° C 80% 1002.9 hPa - - 112 W/m² -
1788502557 17.78° C 80% 1003.1 hPa - - 73 W/m² -
1788502256 17.78° C 80% 1003.1 hPa - - 77 W/m² -
1788501955 17.78° C 80% 1003 hPa - - 66 W/m² -
1788501654 17.78° C 80% 1003 hPa - - 59 W/m² -
1788501353 17.78° C 80% 1003 hPa - - 67 W/m² -
1788501052 17.78° C 80% 1003 hPa - - 67 W/m² -
1788500751 17.78° C 81% 1003 hPa - - 94 W/m² -
1788500450 17.78° C 81% 1003 hPa - - 74 W/m² -
1788500149 17.78° C 81% 1003 hPa - - 57 W/m² -
1788499847 17.78° C 81% 1003.1 hPa - - 60 W/m² -
1788499546 17.78° C 81% 1003.2 hPa - - 54 W/m² -
1788499245 17.22° C 81% 1003.3 hPa - - 54 W/m² -
1788498944 17.22° C 81% 1003.3 hPa - - 45 W/m² -
1788498644 17.22° C 81% 1003.3 hPa - - 37 W/m² -
1788498343 17.22° C 81% 1003.2 hPa - - 29 W/m² -
1788498042 17.22° C 82% 1003.3 hPa - - 20 W/m² -
1788497741 17.22° C 82% 1003.3 hPa - - 20 W/m² -
1788497440 17.22° C 82% 1003.3 hPa - - 14 W/m² -
1788497139 17.22° C 82% 1003.4 hPa - - 12 W/m² -
1788496838 17.22° C 82% 1003.3 hPa - - 10 W/m² -
1788496567 17.22° C 83% 1003.3 hPa - - 7 W/m² -
1788496236 17.22° C 82% 1003.3 hPa - - 4 W/m² -
1788495935 17.22° C 82% 1003.2 hPa - - 3 W/m² -

* Rain since midnight (hover to see other rain measurements)
** Current wind speed in m/s (hover to see current wind gust speed)